Time,TemperatureF,DewpointF,PressureIn,WindDirection,WindDirectionDegrees,WindSpeedMPH,WindSpeedGustMPH,Humidity,HourlyPrecipIn,Conditions,Clouds,dailyrainin,SoftwareType,DateUTC
2013-07-27 00:30:00,75.0,-99.9,-100.00,ENE,73,3.0,4.0,-999,-99.99,,,-99.99,,2013-07-27 05:30:00,
2013-07-27 01:22:00,75.0,-99.9,-100.00,ENE,73,3.0,4.0,-999,-99.99,,,-99.99,,2013-07-27 06:22:00,
2013-07-27 02:02:00,74.0,-99.9,-100.00,NE,55,2.0,4.0,-999,-99.99,,,-99.99,,2013-07-27 07:02:00,
2013-07-27 02:12:00,74.0,-99.9,-100.00,NE,55,2.0,4.0,-999,-99.99,,,-99.99,,2013-07-27 07:12:00,
2013-07-27 02:53:00,74.0,-99.9,-100.00,SSW,205,0.0,1.0,-999,-99.99,,,-99.99,,2013-07-27 07:53:00,
2013-07-27 03:02:00,74.0,-99.9,-100.00,SSW,205,0.0,1.0,-999,-99.99,,,-99.99,,2013-07-27 08:02:00,
2013-07-27 04:40:00,73.0,-99.9,-100.00,SW,231,1.0,2.0,-999,-99.99,,,-99.99,,2013-07-27 09:40:00,
2013-07-27 05:22:00,73.0,-99.9,-100.00,SW,231,1.0,2.0,-999,-99.99,,,-99.99,,2013-07-27 10:22:00,
2013-07-27 05:32:00,73.0,-99.9,-100.00,SW,231,1.0,2.0,-999,-99.99,,,-99.99,,2013-07-27 10:32:00,
2013-07-27 06:40:00,72.0,-99.9,-100.00,NE,44,0.0,2.0,-999,-99.99,,,-99.99,,2013-07-27 11:40:00,
2013-07-27 07:10:00,72.0,-99.9,-100.00,ESE,105,1.0,2.0,-999,-99.99,,,-99.99,,2013-07-27 12:10:00,
2013-07-27 07:13:00,72.0,-99.9,-100.00,East,91,1.0,2.0,-999,-99.99,,,-99.99,,2013-07-27 12:13:00,
2013-07-27 07:23:00,72.0,-99.9,-100.00,NE,44,0.0,2.0,-999,-99.99,,,-99.99,,2013-07-27 12:23:00,
2013-07-27 07:33:00,72.0,-99.9,-100.00,NE,44,0.0,2.0,-999,-99.99,,,-99.99,,2013-07-27 12:33:00,
2013-07-27 07:50:00,73.0,-99.9,-100.00,ENE,60,1.0,2.0,-999,-99.99,,,-99.99,,2013-07-27 12:50:00,
2013-07-27 07:52:00,72.0,-99.9,-100.00,ESE,105,1.0,2.0,-999,-99.99,,,-99.99,,2013-07-27 12:52:00,
2013-07-27 08:02:00,72.0,-99.9,-100.00,ESE,105,1.0,2.0,-999,-99.99,,,-99.99,,2013-07-27 13:02:00,
2013-07-27 08:44:00,73.0,-99.9,-100.00,ENE,60,1.0,2.0,-999,-99.99,,,-99.99,,2013-07-27 13:44:00,
2013-07-27 10:44:00,76.0,-99.9,-100.00,ESE,107,1.0,2.0,-999,-99.99,,,-99.99,,2013-07-27 15:44:00,
2013-07-27 10:53:00,76.0,-99.9,-100.00,ESE,107,1.0,2.0,-999,-99.99,,,-99.99,,2013-07-27 15:53:00,
2013-07-27 12:00:00,80.0,-99.9,-100.00,SE,124,3.0,3.0,-999,-99.99,,,-99.99,,2013-07-27 17:00:00,
2013-07-27 12:54:00,80.0,-99.9,-100.00,SE,124,3.0,3.0,-999,-99.99,,,-99.99,,2013-07-27 17:54:00,
2013-07-27 13:30:00,83.0,-99.9,-100.00,South,176,1.0,5.0,-999,-99.99,,,-99.99,,2013-07-27 18:30:00,
2013-07-27 14:12:00,83.0,-99.9,-100.00,WSW,242,0.0,4.0,-999,-99.99,,,-99.99,,2013-07-27 19:12:00,
2013-07-27 14:23:00,83.0,-99.9,-100.00,South,176,1.0,5.0,-999,-99.99,,,-99.99,,2013-07-27 19:23:00,
2013-07-27 16:10:00,87.0,-99.9,-100.00,ENE,69,2.0,4.0,-999,-99.99,,,-99.99,,2013-07-27 21:10:00,
2013-07-27 16:43:00,85.0,-99.9,-100.00,East,97,3.0,5.0,-999,-99.99,,,-99.99,,2013-07-27 21:43:00,
2013-07-27 16:53:00,87.0,-99.9,-100.00,ENE,69,2.0,4.0,-999,-99.99,,,-99.99,,2013-07-27 21:53:00,
2013-07-27 17:02:00,87.0,-99.9,-100.00,ENE,69,2.0,4.0,-999,-99.99,,,-99.99,,2013-07-27 22:02:00,
2013-07-27 17:43:00,87.0,-99.9,-100.00,ENE,76,2.0,4.0,-999,-99.99,,,-99.99,,2013-07-27 22:43:00,
2013-07-27 20:50:00,85.0,-99.9,-100.00,SSW,199,2.0,2.0,-999,-99.99,,,-99.99,,2013-07-28 01:50:00,
2013-07-27 21:43:00,85.0,-99.9,-100.00,SSW,199,2.0,2.0,-999,-99.99,,,-99.99,,2013-07-28 02:43:00,
2013-07-27 22:12:00,84.0,-99.9,-100.00,South,177,1.0,2.0,-999,-99.99,,,-99.99,,2013-07-28 03:12:00,
2013-07-27 23:12:00,82.0,-99.9,-100.00,SE,136,1.0,2.0,-999,-99.99,,,-99.99,,2013-07-28 04:12:00,
2013-07-27 23:20:00,79.0,-99.9,-100.00,ESE,115,1.0,3.0,-999,-99.99,,,-99.99,,2013-07-28 04:20:00,
2013-07-27 23:22:00,82.0,-99.9,-100.00,SE,136,1.0,2.0,-999,-99.99,,,-99.99,,2013-07-28 04:22:00,